Albany, NY

12:07 AM EST on December 15, 2019 (GMT -0500)
Albany International

Weather History for KALB - October, 2019

Change the Weather History Date:

Thursday, October 10, 2019

  Actual Average Record
Temperature  
Mean Temperature 59 °F 52 °F  
Max Temperature 69 °F 62 °F 89 °F (1939)
Min Temperature 49 °F 41 °F 25 °F (1980)
Degree Days  
Heating Degree Days 6 13  
Month to date heating degree days 95 117  
Since 1 July heating degree days 172 284  
Cooling Degree Days 0 0  
Month to date cooling degree days 4 0  
Year to date cooling degree days 771 594  
Growing Degree Days 8 (Base 50)    
Moisture  
Dew Point 42 °F    
Average Humidity 61    
Maximum Humidity 86    
Minimum Humidity 35    
Precipitation  
Precipitation T in 0.12 in 2.22 in (1998)
Month to date precipitation 2.11 1.19  
Year to date precipitation 33.32 30.64  
Snow  
Snow 0.00 in 0.00 in 0.80 in (1925)
Month to date snowfall 0.0 0.1  
Since 1 July snowfall 0.0 0.1  
Since 1 September snowfall 0.0 0.1  
Snow Depth 0.00 in    
Sea Level Pressure  
Sea Level Pressure 30.32 in    
Wind  
Wind Speed 5 mph (North)    
Max Wind Speed 15 mph    
Max Gust Speed 26 mph    
Visibility 10 miles    
Events      
T = Trace of Precipitation, MM = Missing Value Source: NWS Daily Summary

Daily Weather History Graph

Daily Weather History Graph

Search for Another Location

Airport or City:

Astronomy

Oct. 10, 2019 Rise Set
Actual Time 7:02 AM EDT 6:21 PM EDT
Civil Twilight 6:34 AM EDT 6:49 PM EDT
Nautical Twilight 6:01 AM EDT 7:22 PM EDT
Astronomical Twilight 5:28 AM EDT 7:55 PM EDT
Moon 5:27 PM EDT (10/10) 3:36 AM EDT (10/10)
Length of Visible Light 12h 15m
Length of Day
11h 19m
Waxing Gibbous, 91% of the Moon is Illuminated
Oct 10
Waxing Gibbous
Oct 13
Full
Oct 21
Last Quarter
Oct 27
New
Nov 4
First Quarter

Hourly Weather History & Observations

Time (EDT) Temp. Dew Point Humidity Pressure Visibility Wind Dir Wind Speed Gust Speed Precip Events Conditions
12:51 AM 52.0 °F 45.0 °F 77% 30.35 in 10.0 mi NW 4.6 mph - 0.00 in   Overcast
1:51 AM 52.0 °F 45.0 °F 77% 30.34 in 10.0 mi North 4.6 mph - N/A   Overcast
2:51 AM 52.0 °F 45.0 °F 77% 30.34 in 10.0 mi Calm Calm - N/A   Overcast
3:51 AM 51.1 °F 45.0 °F 80% 30.34 in 10.0 mi NNW 3.5 mph - 0.00 in   Mostly Cloudy
4:51 AM 51.1 °F 45.0 °F 80% 30.33 in 10.0 mi North 4.6 mph - N/A   Overcast
5:51 AM 51.1 °F 45.0 °F 80% 30.34 in 10.0 mi Calm Calm - N/A   Overcast
6:51 AM 50.0 °F 44.1 °F 80% 30.35 in 10.0 mi Calm Calm - N/A   Mostly Cloudy
7:51 AM 48.9 °F 44.1 °F 83% 30.36 in 10.0 mi Calm Calm - N/A   Mostly Cloudy
8:51 AM 51.1 °F 43.0 °F 74% 30.37 in 10.0 mi North 3.5 mph - N/A   Mostly Cloudy
9:51 AM 54.0 °F 44.1 °F 69% 30.36 in 10.0 mi North 6.9 mph - N/A   Mostly Cloudy
10:51 AM 60.1 °F 44.1 °F 55% 30.35 in 10.0 mi North 6.9 mph - N/A   Scattered Clouds
11:51 AM 63.0 °F 43.0 °F 48% 30.34 in 10.0 mi NNW 9.2 mph - N/A   Scattered Clouds
12:51 PM 64.9 °F 41.0 °F 42% 30.32 in 10.0 mi North 9.2 mph - N/A   Scattered Clouds
1:51 PM 66.9 °F 41.0 °F 39% 30.29 in 10.0 mi North 10.4 mph - N/A   Partly Cloudy
2:51 PM 68.0 °F 41.0 °F 37% 30.28 in 10.0 mi North 8.1 mph - N/A   Partly Cloudy
4:51 PM 68.0 °F 41.0 °F 37% 30.28 in 10.0 mi NNW 9.2 mph - N/A   Partly Cloudy
5:51 PM 64.9 °F 41.0 °F 42% 30.27 in 10.0 mi North 9.2 mph - N/A   Partly Cloudy
6:51 PM 61.0 °F 41.0 °F 48% 30.29 in 10.0 mi NNE 5.8 mph - N/A   Partly Cloudy
7:51 PM 57.9 °F 41.0 °F 53% 30.28 in 10.0 mi North 5.8 mph - N/A   Partly Cloudy
8:51 PM 57.0 °F 39.9 °F 53% 30.29 in 10.0 mi NNE 5.8 mph - N/A   Scattered Clouds
9:51 PM 54.0 °F 39.9 °F 59% 30.29 in 10.0 mi North 3.5 mph - N/A   Mostly Cloudy
10:51 PM 54.0 °F 39.9 °F 59% 30.29 in 10.0 mi North 4.6 mph - N/A   Partly Cloudy
11:51 PM 50.0 °F 39.9 °F 68% 30.29 in 10.0 mi North 4.6 mph - N/A   Partly Cloudy